TimeCDT,TemperatureF,Dew PointF,Humidity,Sea Level PressureIn,VisibilityMPH,Wind Direction,Wind SpeedMPH,Gust SpeedMPH,PrecipitationIn,Events,Conditions,WindDirDegrees,DateUTC
12:15 AM,62.6,55.4,77,29.97,10.0,SSE,5.8,-,N/A,,Clear,150,2013-10-11 05:15:00
12:35 AM,62.6,55.4,77,29.97,10.0,SSE,6.9,-,N/A,,Clear,150,2013-10-11 05:35:00
12:55 AM,60.8,55.4,82,29.96,10.0,SE,8.1,-,N/A,,Clear,140,2013-10-11 05:55:00
1:15 AM,60.8,55.4,82,29.96,10.0,SE,5.8,-,N/A,,Clear,140,2013-10-11 06:15:00
1:55 AM,59.0,55.4,88,29.96,10.0,SE,3.5,-,N/A,,Clear,130,2013-10-11 06:55:00
2:15 AM,59.0,55.4,88,29.97,10.0,SE,4.6,-,N/A,,Clear,130,2013-10-11 07:15:00
2:35 AM,57.2,53.6,88,29.97,10.0,SE,6.9,-,N/A,,Clear,130,2013-10-11 07:35:00
2:55 AM,59.0,55.4,88,29.97,10.0,SSE,4.6,-,N/A,,Clear,150,2013-10-11 07:55:00
3:15 AM,59.0,55.4,88,29.98,10.0,SSE,4.6,-,N/A,,Clear,160,2013-10-11 08:15:00
3:35 AM,57.2,55.4,94,29.98,10.0,SSE,4.6,-,N/A,,Clear,150,2013-10-11 08:35:00
3:55 AM,55.4,53.6,94,29.98,10.0,SE,5.8,-,N/A,,Clear,140,2013-10-11 08:55:00
4:15 AM,57.2,55.4,94,29.97,10.0,SE,6.9,-,N/A,,Clear,130,2013-10-11 09:15:00
4:35 AM,57.2,55.4,94,29.97,10.0,SE,5.8,-,N/A,,Clear,130,2013-10-11 09:35:00
4:55 AM,57.2,55.4,94,29.97,10.0,SE,5.8,-,N/A,,Clear,140,2013-10-11 09:55:00
5:15 AM,57.2,55.4,94,29.97,10.0,SE,5.8,-,N/A,,Clear,140,2013-10-11 10:15:00
5:35 AM,57.2,55.4,94,29.98,10.0,SSE,5.8,-,N/A,,Clear,160,2013-10-11 10:35:00
5:55 AM,57.2,55.4,94,29.98,10.0,SSE,6.9,-,N/A,,Clear,150,2013-10-11 10:55:00
6:15 AM,57.2,55.4,94,29.97,10.0,SSE,8.1,-,N/A,,Clear,150,2013-10-11 11:15:00
6:35 AM,57.2,55.4,94,29.97,10.0,SSE,8.1,-,N/A,,Clear,150,2013-10-11 11:35:00
6:55 AM,57.2,55.4,94,29.98,10.0,SSE,8.1,-,N/A,,Clear,150,2013-10-11 11:55:00
7:15 AM,57.2,55.4,94,29.98,10.0,SSE,6.9,-,N/A,,Clear,150,2013-10-11 12:15:00
7:35 AM,57.2,55.4,94,29.99,10.0,SSE,6.9,-,N/A,,Clear,150,2013-10-11 12:35:00
7:55 AM,57.2,55.4,94,29.98,10.0,SE,8.1,-,N/A,,Clear,140,2013-10-11 12:55:00
8:15 AM,59.0,57.2,94,29.97,10.0,SE,9.2,-,N/A,,Clear,140,2013-10-11 13:15:00
8:35 AM,60.8,57.2,88,29.97,10.0,SSE,11.5,-,N/A,,Clear,150,2013-10-11 13:35:00
8:55 AM,60.8,57.2,88,29.97,10.0,SSE,8.1,-,N/A,,Clear,150,2013-10-11 13:55:00
9:15 AM,62.6,57.2,82,29.98,10.0,South,8.1,-,N/A,,Clear,170,2013-10-11 14:15:00
9:35 AM,64.4,59.0,83,29.97,10.0,South,11.5,18.4,N/A,,Clear,170,2013-10-11 14:35:00
9:55 AM,66.2,59.0,78,29.97,10.0,South,10.4,18.4,N/A,,Clear,170,2013-10-11 14:55:00
10:15 AM,68.0,59.0,73,29.97,10.0,South,12.7,18.4,N/A,,Clear,170,2013-10-11 15:15:00
10:35 AM,69.8,59.0,68,29.96,10.0,South,12.7,-,N/A,,Clear,180,2013-10-11 15:35:00
10:55 AM,69.8,59.0,68,29.96,10.0,SSE,8.1,18.4,N/A,,Partly Cloudy,160,2013-10-11 15:55:00
11:15 AM,71.6,59.0,64,29.95,10.0,SSE,12.7,19.6,N/A,,Partly Cloudy,160,2013-10-11 16:15:00
11:35 AM,71.6,59.0,64,29.95,10.0,South,13.8,20.7,N/A,,Clear,170,2013-10-11 16:35:00
11:55 AM,73.4,59.0,61,29.94,10.0,SSE,16.1,21.9,N/A,,Clear,160,2013-10-11 16:55:00
12:15 PM,73.4,59.0,61,29.93,10.0,South,12.7,24.2,N/A,,Clear,180,2013-10-11 17:15:00
12:35 PM,75.2,57.2,53,29.91,10.0,SSE,9.2,21.9,N/A,,Clear,160,2013-10-11 17:35:00
12:55 PM,75.2,57.2,53,29.90,10.0,SE,18.4,24.2,N/A,,Clear,140,2013-10-11 17:55:00
1:15 PM,75.2,57.2,53,29.90,10.0,South,15.0,25.3,N/A,,Clear,170,2013-10-11 18:15:00
1:35 PM,75.2,57.2,53,29.88,10.0,SSE,15.0,26.5,N/A,,Clear,150,2013-10-11 18:35:00
1:55 PM,77.0,55.4,47,29.87,10.0,SSE,18.4,25.3,N/A,,Clear,150,2013-10-11 18:55:00
2:15 PM,77.0,57.2,50,29.86,10.0,SSE,15.0,25.3,N/A,,Clear,150,2013-10-11 19:15:00
2:35 PM,77.0,55.4,47,29.85,10.0,SE,17.3,24.2,N/A,,Clear,140,2013-10-11 19:35:00
2:55 PM,77.0,53.6,44,29.85,10.0,SE,18.4,25.3,N/A,,Clear,140,2013-10-11 19:55:00
3:15 PM,78.8,53.6,42,29.84,10.0,SSE,17.3,25.3,N/A,,Clear,160,2013-10-11 20:15:00
3:35 PM,78.8,53.6,42,29.84,10.0,SSE,12.7,23.0,N/A,,Clear,150,2013-10-11 20:35:00
3:55 PM,78.8,53.6,42,29.85,10.0,SE,13.8,25.3,N/A,,Clear,140,2013-10-11 20:55:00
4:15 PM,78.8,53.6,42,29.85,10.0,South,11.5,20.7,N/A,,Clear,170,2013-10-11 21:15:00
4:35 PM,77.0,53.6,44,29.85,10.0,SSE,13.8,24.2,N/A,,Clear,160,2013-10-11 21:35:00
4:55 PM,77.0,53.6,44,29.85,10.0,South,9.2,20.7,N/A,,Clear,170,2013-10-11 21:55:00
5:15 PM,77.0,53.6,44,29.85,10.0,South,10.4,21.9,N/A,,Clear,170,2013-10-11 22:15:00
5:35 PM,77.0,53.6,44,29.86,10.0,South,12.7,19.6,N/A,,Clear,170,2013-10-11 22:35:00
5:55 PM,75.2,53.6,47,29.86,10.0,SSE,11.5,-,N/A,,Clear,160,2013-10-11 22:55:00
6:15 PM,75.2,53.6,47,29.86,10.0,SSE,8.1,-,N/A,,Clear,150,2013-10-11 23:15:00
6:35 PM,73.4,53.6,50,29.86,10.0,SE,11.5,-,N/A,,Clear,140,2013-10-11 23:35:00
6:55 PM,73.4,53.6,50,29.86,10.0,SE,9.2,15.0,N/A,,Mostly Cloudy,140,2013-10-11 23:55:00
7:15 PM,73.4,53.6,50,29.86,10.0,SSE,11.5,17.3,N/A,,Overcast,150,2013-10-12 00:15:00
7:35 PM,73.4,53.6,50,29.86,10.0,SE,11.5,17.3,N/A,,Overcast,140,2013-10-12 00:35:00
7:55 PM,73.4,53.6,50,29.87,10.0,SE,6.9,17.3,N/A,,Mostly Cloudy,140,2013-10-12 00:55:00
8:15 PM,73.4,53.6,50,29.87,10.0,SE,10.4,16.1,N/A,,Overcast,140,2013-10-12 01:15:00
8:35 PM,73.4,53.6,50,29.86,10.0,SSE,11.5,18.4,N/A,,Overcast,150,2013-10-12 01:35:00
8:55 PM,71.6,53.6,53,29.87,10.0,SSE,12.7,-,N/A,,Overcast,150,2013-10-12 01:55:00
9:15 PM,71.6,53.6,53,29.87,10.0,SSE,11.5,-,N/A,,Overcast,160,2013-10-12 02:15:00
9:35 PM,71.6,53.6,53,29.87,10.0,SSE,8.1,16.1,N/A,,Overcast,150,2013-10-12 02:35:00
9:55 PM,69.8,53.6,56,29.87,10.0,SSE,9.2,-,N/A,,Overcast,150,2013-10-12 02:55:00
10:15 PM,69.8,55.4,60,29.87,10.0,SSE,8.1,-,N/A,,Overcast,150,2013-10-12 03:15:00
10:35 PM,69.8,55.4,60,29.88,10.0,SSE,9.2,-,N/A,,Overcast,150,2013-10-12 03:35:00
10:55 PM,69.8,55.4,60,29.88,10.0,SSE,8.1,-,N/A,,Overcast,160,2013-10-12 03:55:00
11:15 PM,71.6,57.2,60,29.88,10.0,South,9.2,15.0,N/A,,Overcast,170,2013-10-12 04:15:00
11:35 PM,71.6,57.2,60,29.88,10.0,SSE,9.2,17.3,N/A,,Overcast,160,2013-10-12 04:35:00
11:55 PM,71.6,57.2,60,29.88,10.0,SSE,8.1,15.0,N/A,,Overcast,160,2013-10-12 04:55:00